[[{"header":{"parameterUnit":"m.s-1","parameterCategory":2,"la1":30.2992,"la2":30.254,"lo1":-89.0895,"lo2":-89.0443,"dy":0.0025,"dx":0.0025,"nx":19,"ny":19,"refTime":"2026-04-07T03:00:00:Z","depth":"0","parameterNumber":2,"parameterNumberName":"U-component_of_CURRENTS"},"data":[0,0,0,-0.2512,-0.2513,-0.2529,-0.2529,-0.2507,-0.2507,0,0,0,0,0,0,0,0,0,0,0,-0.2502,-0.2502,-0.2512,-0.2513,-0.2529,-0.2529,-0.2508,-0.2507,0,0,0,0,0,0,0,0,0,0,0,-0.2502,-0.2502,-0.2503,-0.2513,-0.2529,-0.2529,-0.2508,-0.2503,0,0,0,0,0,0,0,0,0,0,-0.2492,-0.2485,-0.2502,-0.2503,-0.2513,-0.2529,-0.2529,-0.2503,-0.2504,-0.2492,0,-0.25,0,-0.2509,-0.2506,-0.2506,0,0,0,-0.2502,-0.2485,-0.25,-0.2503,-0.2513,-0.2529,-0.2518,-0.2504,-0.2504,-0.2492,-0.25,-0.25,-0.2509,-0.2506,-0.2506,-0.2524,-0.2524,0,0,-0.2501,-0.2492,-0.25,-0.25,-0.2525,-0.2518,-0.2519,-0.2504,-0.25,-0.25,-0.25,-0.2509,-0.2506,-0.2506,-0.2523,-0.2524,0,0,0,-0.2506,-0.2491,-0.2507,-0.2501,-0.251,-0.2519,-0.252,-0.25,-0.2509,-0.25,-0.2508,-0.2506,-0.2505,-0.2523,-0.2523,-0.2552,0,0,0,-0.2505,-0.2495,-0.2507,-0.2499,-0.2511,-0.251,-0.2516,-0.251,-0.2509,-0.2508,-0.2506,-0.2505,-0.2523,-0.2523,-0.255,-0.255,0,0,0,-0.25,-0.2494,-0.2501,-0.2499,-0.2513,-0.2511,-0.2517,-0.251,-0.2514,-0.2506,-0.2505,-0.2522,-0.2523,-0.2549,-0.2548,-0.2551,0,0,0,-0.2483,-0.2497,-0.2501,-0.2524,-0.2513,-0.2549,-0.2518,-0.2529,-0.2526,-0.2505,-0.2523,-0.2523,-0.2548,-0.2547,-0.255,-0.2415,-0.2409,0,0,-0.2494,-0.2498,-0.2516,-0.252,-0.2554,-0.2546,-0.2573,-0.255,-0.2533,-0.2521,-0.2522,-0.2551,-0.2548,-0.2551,-0.2463,-0.2455,0,0,0,-0.2515,-0.2519,-0.2534,-0.2552,-0.2582,-0.2591,-0.2583,-0.2578,-0.2567,-0.2538,-0.256,-0.2557,-0.2558,-0.2475,-0.2469,-0.2381,-0.2527,-0.2527,-0.2527,-0.248,-0.2513,-0.2532,-0.2568,-0.2595,-0.2618,-0.2625,-0.2614,-0.26,-0.2602,-0.2587,-0.2618,-0.253,-0.2524,-0.2436,-0.2602,-0.2603,-0.2603,-0.2603,-0.2465,-0.246,-0.2515,-0.2542,-0.2578,-0.26,-0.264,-0.2638,-0.264,-0.2625,-0.2625,-0.2518,-0.2519,-0.2427,-0.2605,-0.2604,-0.2604,-0.2604,-0.2604,-0.2403,-0.2403,-0.2437,-0.2475,-0.2517,-0.2574,-0.2602,-0.2641,-0.2649,-0.2658,-0.2552,-0.2549,-0.246,-0.2656,-0.2656,-0.2656,-0.2656,-0.2656,-0.2656,-0.2302,-0.2342,-0.2339,-0.2404,-0.2425,-0.2483,-0.2575,-0.2591,-0.2581,-0.2562,-0.256,-0.2449,-0.2633,-0.2621,-0.2657,-0.2657,-0.2657,-0.2657,-0.2657,-0.2179,-0.2211,-0.2205,-0.2223,-0.2289,-0.2279,-0.2429,-0.2431,-0.2473,-0.2429,-0.2326,-0.2505,-0.2476,-0.2478,-0.2462,-0.2455,-0.2455,-0.2455,-0.2455,-0.2073,-0.21,-0.2056,-0.2061,-0.2096,-0.2169,-0.21,-0.2135,-0.2153,-0.2114,-0.2197,-0.2145,-0.2158,-0.2109,-0.212,-0.2096,-0.1996,-0.1996,-0.1996,-0.1966,-0.1986,-0.1905,-0.1943,-0.1983,-0.2,-0.1863,-0.1825,-0.189,-0.1975,-0.2106,-0.2125,-0.2052,-0.2078,-0.2005,-0.2027,-0.199,0,0]},{"header":{"parameterUnit":"m.s-1","parameterCategory":2,"la1":30.2992,"la2":30.254,"lo1":-89.0895,"lo2":-89.0443,"dy":0.0025,"dx":0.0025,"nx":19,"ny":19,"refTime":"2026-04-07T03:00:00:Z","depth":"0","parameterNumber":3,"parameterNumberName":"V-component_of_CURRENTS"},"data":[0,0,0,-0.051,-0.0509,-0.0426,-0.0426,-0.0282,-0.0281,0,0,0,0,0,0,0,0,0,0,0,-0.054,-0.0539,-0.051,-0.0509,-0.0426,-0.0426,-0.0282,-0.0281,0,0,0,0,0,0,0,0,0,0,0,-0.054,-0.0539,-0.0539,-0.0509,-0.0426,-0.0425,-0.0282,-0.035,0,0,0,0,0,0,0,0,0,0,-0.0433,-0.0475,-0.0539,-0.0539,-0.0508,-0.0426,-0.0425,-0.0353,-0.0346,-0.0314,0,-0.0313,0,-0.03,-0.0272,-0.0271,0,0,0,-0.0491,-0.0481,-0.046,-0.0539,-0.0508,-0.0427,-0.0458,-0.0349,-0.0341,-0.0304,-0.0311,-0.0306,-0.0297,-0.0271,-0.027,-0.0186,-0.0186,0,0,-0.0496,-0.0518,-0.0466,-0.0455,-0.0501,-0.0461,-0.0456,-0.0344,-0.034,-0.0311,-0.0303,-0.0295,-0.027,-0.0269,-0.0186,-0.0186,0,0,0,-0.0521,-0.0521,-0.0502,-0.046,-0.0452,-0.0459,-0.0453,-0.0345,-0.034,-0.0301,-0.0293,-0.0269,-0.0268,-0.0186,-0.0186,-0.027,0,0,0,-0.0523,-0.0537,-0.0505,-0.0516,-0.0455,-0.0403,-0.0457,-0.0347,-0.0334,-0.0294,-0.0269,-0.0266,-0.0186,-0.0186,-0.0268,-0.0303,0,0,0,-0.0541,-0.0538,-0.0534,-0.0517,-0.0489,-0.0405,-0.0392,-0.0344,-0.033,-0.0271,-0.0266,-0.0186,-0.0186,-0.0266,-0.0299,-0.0267,0,0,0,-0.0557,-0.0577,-0.0535,-0.055,-0.049,-0.046,-0.0393,-0.0356,-0.0313,-0.0268,-0.0186,-0.0186,-0.0265,-0.0296,-0.0265,-0.0206,-0.0208,0,0,-0.0597,-0.0582,-0.0592,-0.0552,-0.0555,-0.0469,-0.0449,-0.0364,-0.0301,-0.0216,-0.0214,-0.0269,-0.0298,-0.0267,-0.0216,-0.0218,0,0,0,-0.0613,-0.0626,-0.0617,-0.0606,-0.0561,-0.0515,-0.0428,-0.0379,-0.0306,-0.0279,-0.0249,-0.0264,-0.0241,-0.0202,-0.0203,-0.0019,-0.0187,-0.0187,-0.0187,-0.0696,-0.0673,-0.0692,-0.0659,-0.063,-0.0538,-0.049,-0.0402,-0.0341,-0.0322,-0.0318,-0.0333,-0.0293,-0.0293,-0.0106,-0.0301,-0.0302,-0.0302,-0.0302,-0.0776,-0.0793,-0.0754,-0.0767,-0.0701,-0.0667,-0.0543,-0.0487,-0.0396,-0.0364,-0.0337,-0.0276,-0.03,-0.0099,-0.0307,-0.0306,-0.0306,-0.0305,-0.0305,-0.0841,-0.0847,-0.0846,-0.0855,-0.083,-0.0746,-0.0697,-0.0592,-0.0473,-0.0454,-0.0345,-0.0343,-0.0173,-0.0425,-0.0425,-0.0425,-0.0425,-0.0425,-0.0425,-0.091,-0.0907,-0.095,-0.0945,-0.095,-0.0916,-0.0781,-0.0697,-0.0522,-0.0419,-0.0417,-0.0147,-0.0369,-0.0373,-0.0426,-0.0426,-0.0426,-0.0426,-0.0426,-0.0991,-0.0988,-0.1057,-0.1079,-0.1086,-0.1063,-0.0929,-0.0697,-0.0572,-0.0464,-0.0118,-0.0368,-0.032,-0.0317,-0.0317,-0.0353,-0.0353,-0.0353,-0.0353,-0.1045,-0.105,-0.1141,-0.119,-0.1211,-0.1131,-0.0985,-0.0707,-0.0277,-0.0047,0.0014,0.0065,0.0054,0.0127,0.012,0.0131,0.021,0.0211,0.0212,-0.1096,-0.1121,-0.1191,-0.1235,-0.1264,-0.119,-0.1022,-0.0656,-0.0026,0.0253,0.0258,0.0234,0.0324,0.0292,0.042,0.0395,0.0416,0,0]}],[{"header":{"parameterUnit":"m.s-1","parameterCategory":2,"la1":30.2992,"la2":30.254,"lo1":-89.0895,"lo2":-89.0443,"dy":0.0025,"dx":0.0025,"nx":19,"ny":19,"refTime":"2026-04-07T03:00:00:Z","depth":"2","parameterNumber":2,"parameterNumberName":"U-component_of_CURRENTS"},"data":[0,0,0,-0.2146,-0.2147,-0.2194,-0.2194,-0.2198,-0.2198,0,0,0,0,0,0,0,0,0,0,0,-0.2126,-0.2126,-0.2146,-0.2147,-0.2194,-0.2194,-0.2198,-0.2198,0,0,0,0,0,0,0,0,0,0,0,-0.2126,-0.2126,-0.2127,-0.2147,-0.2194,-0.2194,-0.2198,-0.2175,0,0,0,0,0,0,0,0,0,0,-0.2135,-0.2123,-0.2126,-0.2127,-0.2148,-0.2194,-0.2194,-0.2174,-0.2176,-0.2164,0,-0.2177,0,-0.2192,-0.2198,-0.2198,0,0,0,-0.2139,-0.2121,-0.2142,-0.2127,-0.2148,-0.2194,-0.2171,-0.2176,-0.2178,-0.2166,-0.2177,-0.2178,-0.2192,-0.2198,-0.2198,-0.2229,-0.2229,0,0,-0.2137,-0.2124,-0.214,-0.2143,-0.2168,-0.2169,-0.2172,-0.2178,-0.2177,-0.2178,-0.2179,-0.2192,-0.2198,-0.2198,-0.2229,-0.2229,0,0,0,-0.2135,-0.2122,-0.2144,-0.2142,-0.2158,-0.2171,-0.2174,-0.2176,-0.2186,-0.2179,-0.2192,-0.2198,-0.2198,-0.2228,-0.2229,-0.2259,0,0,0,-0.2133,-0.2122,-0.2143,-0.2134,-0.2159,-0.2174,-0.2172,-0.2186,-0.2187,-0.2192,-0.2198,-0.2198,-0.2228,-0.2229,-0.2258,-0.2258,0,0,0,-0.2123,-0.2121,-0.2131,-0.2134,-0.2159,-0.2175,-0.2185,-0.2186,-0.2195,-0.2198,-0.2198,-0.2228,-0.2228,-0.2256,-0.2256,-0.226,0,0,0,-0.2102,-0.2119,-0.213,-0.2158,-0.2159,-0.2206,-0.2185,-0.2211,-0.2217,-0.2198,-0.2228,-0.2229,-0.2256,-0.2255,-0.2259,-0.2114,-0.2108,0,0,-0.2113,-0.212,-0.214,-0.2152,-0.2194,-0.2199,-0.2238,-0.2234,-0.2224,-0.2219,-0.2221,-0.2258,-0.2256,-0.2259,-0.2165,-0.2156,0,0,0,-0.2137,-0.2144,-0.2163,-0.219,-0.2227,-0.2251,-0.2259,-0.2261,-0.2266,-0.2234,-0.2267,-0.2265,-0.2266,-0.2177,-0.2171,-0.2233,-0.2233,-0.2233,-0.2233,-0.2106,-0.2142,-0.2168,-0.2212,-0.2246,-0.2285,-0.2302,-0.2303,-0.2295,-0.2306,-0.2297,-0.2329,-0.2236,-0.223,-0.2312,-0.2312,-0.2312,-0.2313,-0.2313,-0.2099,-0.2101,-0.216,-0.2197,-0.2243,-0.2277,-0.2327,-0.2333,-0.2346,-0.2335,-0.2335,-0.2223,-0.2224,-0.2315,-0.2315,-0.2314,-0.2314,-0.2314,-0.2314,-0.2047,-0.205,-0.2092,-0.2143,-0.2198,-0.2264,-0.2297,-0.2344,-0.2359,-0.2371,-0.226,-0.2257,-0.2331,-0.2371,-0.2371,-0.2371,-0.2371,-0.2371,-0.2371,-0.1957,-0.2002,-0.2011,-0.2086,-0.2115,-0.218,-0.2278,-0.2295,-0.2288,-0.2271,-0.227,-0.2348,-0.2347,-0.2334,-0.2372,-0.2372,-0.2372,-0.2372,-0.2372,-0.1852,-0.1887,-0.1892,-0.1919,-0.1992,-0.1979,-0.2128,-0.2127,-0.2172,-0.2126,-0.2207,-0.221,-0.218,-0.2183,-0.2166,-0.2158,-0.2158,-0.2158,-0.2158,-0.1758,-0.1786,-0.176,-0.1772,-0.1804,-0.1871,-0.1789,-0.1799,-0.1884,-0.1886,-0.1897,-0.1846,-0.186,-0.181,-0.1821,-0.1796,-0.1693,-0.1692,-0.1691,-0.1664,-0.1685,-0.1619,-0.1663,-0.1696,-0.1701,-0.1547,-0.1433,-0.1491,-0.1674,-0.1829,-0.2124,-0.2079,-0.209,-0.2038,-0.2046,-0.2016,0,0]},{"header":{"parameterUnit":"m.s-1","parameterCategory":2,"la1":30.2992,"la2":30.254,"lo1":-89.0895,"lo2":-89.0443,"dy":0.0025,"dx":0.0025,"nx":19,"ny":19,"refTime":"2026-04-07T03:00:00:Z","depth":"2","parameterNumber":3,"parameterNumberName":"V-component_of_CURRENTS"},"data":[0,0,0,-0.0401,-0.04,-0.0332,-0.0331,-0.0197,-0.0196,0,0,0,0,0,0,0,0,0,0,0,-0.0424,-0.0424,-0.0401,-0.04,-0.0332,-0.0331,-0.0197,-0.0196,0,0,0,0,0,0,0,0,0,0,0,-0.0424,-0.0424,-0.0424,-0.04,-0.0332,-0.0331,-0.0198,-0.0257,0,0,0,0,0,0,0,0,0,0,-0.0327,-0.0364,-0.0424,-0.0424,-0.04,-0.0332,-0.0331,-0.026,-0.0253,-0.022,0,-0.0222,0,-0.0212,-0.0188,-0.0187,0,0,0,-0.0383,-0.037,-0.0352,-0.0424,-0.0399,-0.0332,-0.0358,-0.0256,-0.0248,-0.0211,-0.022,-0.0215,-0.021,-0.0187,-0.0186,-0.0102,-0.0102,0,0,-0.0387,-0.0405,-0.0358,-0.0348,-0.0396,-0.036,-0.0356,-0.0252,-0.0248,-0.0219,-0.0212,-0.0208,-0.0186,-0.0185,-0.0102,-0.0102,0,0,0,-0.0409,-0.0407,-0.0393,-0.0353,-0.0348,-0.0359,-0.0354,-0.0252,-0.0249,-0.0211,-0.0206,-0.0185,-0.0184,-0.0102,-0.0102,-0.0182,0,0,0,-0.041,-0.0422,-0.0395,-0.0404,-0.0351,-0.0307,-0.0357,-0.0256,-0.0244,-0.0207,-0.0185,-0.0182,-0.0102,-0.0102,-0.018,-0.0217,0,0,0,-0.0425,-0.0423,-0.042,-0.0406,-0.0384,-0.0308,-0.0298,-0.0253,-0.0241,-0.0187,-0.0182,-0.0102,-0.0102,-0.0178,-0.0213,-0.0189,0,0,0,-0.0437,-0.0459,-0.0421,-0.0438,-0.0385,-0.036,-0.0298,-0.0266,-0.0227,-0.0184,-0.0102,-0.0102,-0.0177,-0.021,-0.0188,-0.0141,-0.0144,0,0,-0.0476,-0.0464,-0.0474,-0.0439,-0.0445,-0.0367,-0.0349,-0.0272,-0.0213,-0.013,-0.0128,-0.0181,-0.0212,-0.0189,-0.0145,-0.0148,0,0,0,-0.0494,-0.0506,-0.0499,-0.0491,-0.0451,-0.0411,-0.0331,-0.0285,-0.0215,-0.0192,-0.0159,-0.0176,-0.0159,-0.0127,-0.0129,-0.0103,-0.0102,-0.0102,-0.0102,-0.0571,-0.0551,-0.0571,-0.0542,-0.0516,-0.0433,-0.0389,-0.0305,-0.0247,-0.0228,-0.0226,-0.0243,-0.0211,-0.0212,-0.0206,-0.0206,-0.0207,-0.0207,-0.0207,-0.0648,-0.0665,-0.0629,-0.0645,-0.0585,-0.0555,-0.0438,-0.0386,-0.0301,-0.0267,-0.0246,-0.0195,-0.0219,-0.0213,-0.0212,-0.0211,-0.021,-0.021,-0.021,-0.0709,-0.0715,-0.0717,-0.073,-0.071,-0.0633,-0.0591,-0.0491,-0.0377,-0.0361,-0.0269,-0.0266,-0.0283,-0.0337,-0.0337,-0.0337,-0.0337,-0.0337,-0.0337,-0.0772,-0.0773,-0.0816,-0.0816,-0.0825,-0.0798,-0.0676,-0.06,-0.0441,-0.0342,-0.034,-0.0286,-0.0282,-0.0287,-0.0339,-0.0338,-0.0338,-0.0338,-0.0338,-0.0848,-0.0848,-0.0918,-0.0943,-0.0957,-0.0938,-0.082,-0.0615,-0.0503,-0.0405,-0.0302,-0.0303,-0.026,-0.0256,-0.0259,-0.03,-0.03,-0.03,-0.03,-0.0898,-0.0904,-0.0997,-0.1048,-0.1074,-0.1003,-0.0877,-0.0631,-0.0393,-0.0269,-0.0271,-0.025,-0.0251,-0.0206,-0.0203,-0.0204,-0.0231,-0.0231,-0.0231,-0.0945,-0.0972,-0.1041,-0.1089,-0.1123,-0.1058,-0.0907,-0.0585,-0.0265,-0.0231,-0.0284,-0.0291,-0.0262,-0.0264,-0.0193,-0.019,-0.019,0,0]}],[{"header":{"parameterUnit":"m.s-1","parameterCategory":2,"la1":30.2992,"la2":30.254,"lo1":-89.0895,"lo2":-89.0443,"dy":0.0025,"dx":0.0025,"nx":19,"ny":19,"refTime":"2026-04-07T03:00:00:Z","depth":"4","parameterNumber":2,"parameterNumberName":"U-component_of_CURRENTS"},"data":[0,0,0,-0.1407,-0.141,-0.1552,-0.1553,-0.1648,-0.1649,0,0,0,0,0,0,0,0,0,0,0,-0.136,-0.1361,-0.1407,-0.141,-0.1552,-0.1553,-0.1648,-0.1649,0,0,0,0,0,0,0,0,0,0,0,-0.1359,-0.1361,-0.1362,-0.1411,-0.1552,-0.1553,-0.1648,-0.1563,0,0,0,0,0,0,0,0,0,0,-0.1435,-0.1405,-0.136,-0.1362,-0.1411,-0.1552,-0.1553,-0.1559,-0.1568,-0.1559,0,-0.1589,0,-0.1618,-0.1653,-0.1654,0,0,0,-0.1411,-0.1398,-0.1435,-0.1362,-0.1413,-0.1551,-0.1488,-0.1565,-0.1574,-0.157,-0.159,-0.1595,-0.162,-0.1654,-0.1654,-0.1742,-0.1743,0,0,-0.1404,-0.1384,-0.1429,-0.1441,-0.1458,-0.1484,-0.1493,-0.1572,-0.1583,-0.1591,-0.1597,-0.1621,-0.1654,-0.1655,-0.1742,-0.1742,0,0,0,-0.138,-0.1379,-0.1416,-0.1437,-0.1468,-0.1488,-0.1498,-0.158,-0.1593,-0.1599,-0.1622,-0.1655,-0.1655,-0.1741,-0.1742,-0.1771,0,0,0,-0.1375,-0.1365,-0.1413,-0.1402,-0.1467,-0.1538,-0.1504,-0.1587,-0.1598,-0.1622,-0.1655,-0.1656,-0.1741,-0.1742,-0.1769,-0.1771,0,0,0,-0.1352,-0.1363,-0.1382,-0.1401,-0.1462,-0.1538,-0.1556,-0.1591,-0.1611,-0.1654,-0.1656,-0.174,-0.1742,-0.1767,-0.1769,-0.1773,0,0,0,-0.1323,-0.1353,-0.1382,-0.143,-0.1461,-0.155,-0.1556,-0.1629,-0.167,-0.1655,-0.1741,-0.1742,-0.1767,-0.1767,-0.1772,-0.1535,0,0,0,-0.1339,-0.1354,-0.1384,-0.1413,-0.1491,-0.153,-0.1612,-0.1667,-0.168,-0.1707,-0.1711,-0.177,-0.1768,-0.1773,-0.1605,0,0,0,0,-0.1375,-0.1395,-0.1426,-0.1483,-0.155,-0.1616,-0.1675,-0.1698,-0.1753,-0.171,-0.1785,-0.1783,-0.1785,-0.1644,-0.1748,-0.1747,-0.1747,-0.1747,-0.1747,-0.135,-0.1401,-0.1454,-0.1526,-0.1589,-0.1681,-0.1729,-0.177,-0.1782,-0.1813,-0.1819,-0.1857,-0.1712,-0.1838,-0.1838,-0.1838,-0.1838,-0.1838,-0.1838,-0.1358,-0.1379,-0.1467,-0.1539,-0.1623,-0.1698,-0.1785,-0.1811,-0.186,-0.1861,-0.1861,-0.17,-0.1841,-0.1841,-0.184,-0.184,-0.184,-0.184,-0.1839,-0.1315,-0.133,-0.1404,-0.1506,-0.1608,-0.171,-0.1763,-0.184,-0.1878,-0.1896,-0.1738,-0.1872,-0.1854,-0.1901,-0.1901,-0.1901,-0.1901,-0.1901,-0.1901,-0.1225,-0.1297,-0.1346,-0.147,-0.1531,-0.1627,-0.1758,-0.1774,-0.1842,-0.1739,-0.1905,-0.1878,-0.1876,-0.1858,-0.1902,-0.1902,-0.1902,-0.1902,-0.1901,-0.1137,-0.1188,-0.124,-0.1303,-0.1427,-0.1476,-0.1643,-0.1633,-0.1633,-0.1574,-0.1646,-0.1659,-0.162,-0.1624,-0.1596,-0.1564,-0.1561,-0.1558,0,-0.1056,-0.1092,-0.1133,-0.1183,-0.1226,-0.137,-0.1325,-0.1381,-0.1433,-0.1386,-0.162,-0.1701,-0.1708,-0.1666,-0.1665,-0.1632,0,0,0,-0.0984,-0.1016,-0.1,-0.1079,-0.1118,-0.117,-0.1298,-0.1253,-0.1447,-0.1367,-0.1485,-0.1504,-0.1739,-0.1904,-0.1874,-0.1872,-0.1842,0,0]},{"header":{"parameterUnit":"m.s-1","parameterCategory":2,"la1":30.2992,"la2":30.254,"lo1":-89.0895,"lo2":-89.0443,"dy":0.0025,"dx":0.0025,"nx":19,"ny":19,"refTime":"2026-04-07T03:00:00:Z","depth":"4","parameterNumber":3,"parameterNumberName":"V-component_of_CURRENTS"},"data":[0,0,0,-0.0263,-0.0263,-0.0233,-0.0232,-0.0133,-0.0132,0,0,0,0,0,0,0,0,0,0,0,-0.0272,-0.0272,-0.0263,-0.0263,-0.0233,-0.0232,-0.0133,-0.0132,0,0,0,0,0,0,0,0,0,0,0,-0.0272,-0.0272,-0.0272,-0.0263,-0.0233,-0.0232,-0.0134,-0.0168,0,0,0,0,0,0,0,0,0,0,-0.0204,-0.0227,-0.0272,-0.0272,-0.0263,-0.0233,-0.0232,-0.017,-0.0166,-0.0135,0,-0.014,0,-0.014,-0.0126,-0.0125,0,0,0,-0.0248,-0.0231,-0.0224,-0.0272,-0.0263,-0.0233,-0.0242,-0.0168,-0.0163,-0.0129,-0.0139,-0.0135,-0.0138,-0.0125,-0.0125,-0.0054,-0.0054,0,0,-0.025,-0.026,-0.0228,-0.0222,-0.0267,-0.0243,-0.0241,-0.0166,-0.0163,-0.0138,-0.0133,-0.0136,-0.0124,-0.0124,-0.0054,-0.0054,0,0,0,-0.0265,-0.0261,-0.0257,-0.0225,-0.0228,-0.0243,-0.0241,-0.0166,-0.0166,-0.0132,-0.0135,-0.0124,-0.0123,-0.0054,-0.0054,-0.012,0,0,0,-0.0265,-0.0271,-0.0258,-0.0262,-0.023,-0.0206,-0.0243,-0.0171,-0.0163,-0.0136,-0.0124,-0.0122,-0.0054,-0.0054,-0.0119,-0.0155,0,0,0,-0.0271,-0.0271,-0.0272,-0.0263,-0.0257,-0.0207,-0.0202,-0.0169,-0.0165,-0.0125,-0.0121,-0.0054,-0.0054,-0.0117,-0.0152,-0.0145,0,0,0,-0.0275,-0.0295,-0.0272,-0.0292,-0.0257,-0.0249,-0.0202,-0.0185,-0.0158,-0.0123,-0.0054,-0.0054,-0.0117,-0.015,-0.0143,-0.0149,0,0,0,-0.0306,-0.0299,-0.0311,-0.029,-0.0306,-0.0252,-0.0246,-0.0191,-0.0142,-0.0072,-0.0071,-0.0119,-0.0152,-0.0144,-0.0144,0,0,0,0,-0.0325,-0.0337,-0.0336,-0.0338,-0.0316,-0.0294,-0.0238,-0.0201,-0.0145,-0.0128,-0.0099,-0.0117,-0.0111,-0.0108,-0.0054,-0.0054,-0.0054,-0.0054,-0.0054,-0.0378,-0.037,-0.0394,-0.0382,-0.0369,-0.0316,-0.0286,-0.022,-0.017,-0.0153,-0.0156,-0.0177,-0.0177,-0.0133,-0.0134,-0.0134,-0.0134,-0.0135,-0.0135,-0.0437,-0.0452,-0.044,-0.0464,-0.043,-0.0415,-0.0328,-0.0287,-0.0223,-0.0188,-0.0178,-0.016,-0.0141,-0.0139,-0.0139,-0.0138,-0.0137,-0.0137,-0.0137,-0.0474,-0.0482,-0.0499,-0.0528,-0.053,-0.0482,-0.0459,-0.0382,-0.029,-0.0281,-0.0242,-0.0209,-0.0218,-0.0267,-0.0267,-0.0267,-0.0267,-0.0267,-0.0267,-0.0504,-0.052,-0.0569,-0.0593,-0.0616,-0.0613,-0.0534,-0.0479,-0.038,-0.0315,-0.0295,-0.0221,-0.0217,-0.0224,-0.027,-0.0269,-0.0269,-0.0269,-0.0269,-0.0542,-0.0557,-0.063,-0.067,-0.0716,-0.0705,-0.0645,-0.0509,-0.0449,-0.0373,-0.0312,-0.0309,-0.028,-0.0274,-0.0282,-0.0346,-0.0347,-0.0347,0,-0.0566,-0.0579,-0.0676,-0.0741,-0.0778,-0.0751,-0.0671,-0.0586,-0.0452,-0.0449,-0.0454,-0.0393,-0.0387,-0.0361,-0.0355,-0.037,0,0,0,-0.0588,-0.062,-0.0685,-0.0754,-0.0799,-0.0705,-0.0645,-0.0591,-0.0478,-0.0401,-0.0353,-0.0351,-0.034,-0.0276,-0.0223,-0.0218,-0.0226,0,0]}]]